Stations météo

réclame
Mon MeteoGroup
Shoreham Airport, Grande-Bretagne (3876): Température de l'air & dewpoint: 09.09.2019 11:00:00 - 15.09.2019 11:00:00 (BST)Shoreham Airport, Grande-Bretagne (3876): Vitesse du vent & gusts: 09.09.2019 11:00:00 - 15.09.2019 11:00:00 (BST)Shoreham Airport, Grande-Bretagne (3876): Direction du vent: 09.09.2019 11:00:00 - 15.09.2019 11:00:00 (BST)Shoreham Airport, Grande-Bretagne (3876): reduced air pressure: 09.09.2019 11:00:00 - 15.09.2019 11:00:00 (BST)Shoreham Airport, Grande-Bretagne (3876): visibility: 09.09.2019 11:00:00 - 15.09.2019 11:00:00 (BST)Shoreham Airport, Grande-Bretagne (3876): Quantités de précipitations: 09.09.2019 11:00:00 - 15.09.2019 11:00:00 (BST)
Date & Time tt [°C] td [°C] ff [km/h] ff [knt] fx [km/h] fx [knt] dd ppp [hPa] vv [km] rr [mm]
15.09.2019 11:00:00 18,6 11,9 8 4 - - SSE 1025,7 10 0,0
15.09.2019 10:00:00 16,9 11,8 8 4 - - NNW 1025,7 10 0,0
15.09.2019 09:00:00 13,9 11,3 9 5 - - NNW 1025,8 10 0,0
15.09.2019 08:00:00 9,1 8,9 4 2 - - NE 1025,4 - 0,0
15.09.2019 07:00:00 6,0 5,8 9 5 - - N 1025,5 - 0,0
15.09.2019 06:00:00 6,7 6,4 11 6 - - N 1025,7 - 0,0
15.09.2019 05:00:00 7,0 6,7 9 5 - - N 1025,7 - 0,0
15.09.2019 04:00:00 6,6 6,1 4 2 - - N 1026,4 - 0,0
15.09.2019 03:00:00 7,1 6,4 5 3 - - N 1026,6 - 0,0
15.09.2019 02:00:00 8,2 7,7 9 5 - - N 1027,2 - 0,0
15.09.2019 01:00:00 8,6 7,8 4 2 - - N 1027,3 - 0,0
15.09.2019 00:00:00 7,9 7,2 8 4 - - N 1027,6 - 0,0
14.09.2019 23:00:00 8,4 7,3 4 2 - - N 1028,1 - 0,0
14.09.2019 22:00:00 10,7 9,8 4 2 - - N 1028,3 - 0,0
14.09.2019 21:00:00 11,7 10,5 4 2 - - N 1028,8 - 0,0
14.09.2019 20:00:00 13,8 11,2 4 2 - - - 1028,9 10 0,0
14.09.2019 19:00:00 17,2 13,2 5 3 - - S 1028,9 10 0,0
14.09.2019 18:00:00 18,8 12,6 5 3 - - S 1029,2 10 0,0
14.09.2019 17:00:00 18,8 12,9 8 4 - - SSE 1029,7 10 0,0
14.09.2019 16:00:00 19,1 13,4 13 7 - - SSE 1030,0 10 0,0
14.09.2019 15:00:00 19,4 12,3 13 7 - - SSE 1030,7 10 0,0
14.09.2019 14:00:00 19,6 12,2 9 5 - - SSE 1031,5 10 0,0
14.09.2019 13:00:00 19,6 12,8 11 6 - - SE 1032,4 10 0,0
14.09.2019 12:00:00 19,1 13,1 11 6 - - SE 1032,9 10 0,0
14.09.2019 11:00:00 18,5 12,7 13 7 - - ESE 1033,1 10 0,0
14.09.2019 10:00:00 14,3 12,1 15 8 - - NNW 1033,7 - 0,0
14.09.2019 09:00:00 11,9 11,1 16 9 - - N 1033,9 10 0,0
14.09.2019 08:00:00 9,0 8,8 16 9 - - N 1034,0 - 0,0
14.09.2019 07:00:00 8,3 8,1 11 6 - - N 1034,1 - 0,0
14.09.2019 06:00:00 7,9 7,5 15 8 - - N 1034,2 - 0,0
14.09.2019 05:00:00 8,9 8,6 11 6 - - N 1034,3 - 0,0
14.09.2019 04:00:00 8,1 7,2 9 5 - - N 1034,9 - 0,0
14.09.2019 03:00:00 9,7 8,6 9 5 - - N 1035,0 - 0,0
14.09.2019 02:00:00 10,1 9,1 9 5 - - N 1035,1 - 0,0
14.09.2019 01:00:00 11,1 9,6 9 5 - - NNE 1035,4 - 0,0
14.09.2019 00:00:00 12,0 11,1 11 6 - - N 1035,6 - 0,0
13.09.2019 23:00:00 11,6 10,2 8 4 - - N 1035,6 - 0,0
13.09.2019 22:00:00 12,4 11,3 8 4 - - N 1035,6 - 0,0
13.09.2019 21:00:00 14,9 12,1 9 5 - - E 1035,1 - 0,0
13.09.2019 20:00:00 16,7 13,8 16 9 - - ESE 1034,8 10 0,0
13.09.2019 19:00:00 17,4 14,4 9 5 - - SE 1034,4 10 0,0
13.09.2019 18:00:00 18,5 14,2 9 5 - - SE 1034,2 10 0,0
13.09.2019 17:00:00 19,1 14,2 11 6 - - SSE 1034,1 10 0,0
13.09.2019 16:00:00 19,8 12,0 15 8 - - SSE 1034,0 10 0,0
13.09.2019 15:00:00 20,9 12,3 13 7 - - S 1034,1 10 0,0
13.09.2019 14:00:00 21,3 12,0 9 5 - - NE 1034,2 10 0,0
13.09.2019 13:00:00 19,4 11,2 15 8 - - N 1034,4 10 0,0
13.09.2019 12:00:00 18,9 11,7 15 8 - - N 1034,3 10 0,0
13.09.2019 11:00:00 17,1 12,4 16 9 - - N 1034,6 10 0,0
13.09.2019 10:00:00 15,8 12,0 16 9 - - N 1034,3 10 0,0
13.09.2019 09:00:00 15,1 11,5 21 11 - - N 1033,3 10 0,0
13.09.2019 08:00:00 15,1 13,1 16 9 - - N 1032,8 10 0,0
13.09.2019 07:00:00 15,3 14,3 15 8 - - N 1032,3 - 0,2
13.09.2019 06:00:00 16,7 16,0 5 3 - - NW 1031,5 - 0,2
13.09.2019 05:00:00 16,9 15,8 8 4 - - NW 1030,8 - 0,0
13.09.2019 04:00:00 17,1 15,8 2 1 - - NW 1030,6 - 0,0
13.09.2019 03:00:00 17,2 15,6 2 1 - - NW 1030,4 - 0,0
13.09.2019 02:00:00 17,4 15,7 11 6 - - W 1030,3 - 0,0
13.09.2019 01:00:00 17,4 15,4 22 12 - - WSW 1030,1 - 0,0
13.09.2019 00:00:00 17,5 15,4 18 10 - - WSW 1029,9 - 0,0
12.09.2019 23:00:00 17,7 15,4 21 11 - - WSW 1030,2 - 0,0
12.09.2019 22:00:00 17,8 15,2 26 14 - - WSW 1030,0 - 0,0
12.09.2019 21:00:00 17,3 15,3 22 12 - - WSW 1029,7 - 0,0
12.09.2019 20:00:00 17,7 15,8 28 15 46 25 WSW 1029,4 - 0,0
12.09.2019 19:00:00 17,9 15,9 28 15 - - SW 1029,3 10 0,0
12.09.2019 18:00:00 18,2 16,0 28 15 50 27 WSW 1029,1 10 0,0
12.09.2019 17:00:00 19,2 16,3 34 18 50 27 SW 1028,7 - 0,0
12.09.2019 16:00:00 19,5 16,9 28 15 48 26 SW 1028,9 10 0,0
12.09.2019 15:00:00 19,3 16,6 31 17 - - SW 1029,1 10 0,0
12.09.2019 14:00:00 19,3 16,6 26 14 - - SW 1029,2 10 0,0
12.09.2019 13:00:00 19,2 17,0 26 14 - - SW 1029,3 10 0,0
12.09.2019 12:00:00 19,4 17,4 22 12 - - SW 1029,2 10 0,0
12.09.2019 11:00:00 18,4 16,9 21 11 - - SW 1029,1 10 0,0
12.09.2019 10:00:00 18,5 17,0 15 8 - - SW 1028,5 10 0,0
12.09.2019 09:00:00 17,5 15,4 16 9 - - WSW 1028,1 10 0,0
12.09.2019 08:00:00 15,8 14,1 15 8 - - W 1027,6 10 0,0
12.09.2019 07:00:00 14,7 13,3 8 4 - - W 1027,0 - 0,0
12.09.2019 06:00:00 13,5 12,3 8 4 - - W 1026,2 - 0,0
12.09.2019 05:00:00 14,1 12,3 11 6 - - W 1026,2 - 0,0
12.09.2019 04:00:00 14,5 13,1 13 7 - - WNW 1025,8 - 0,0
12.09.2019 03:00:00 14,7 13,9 8 4 - - W 1025,6 - 0,0
12.09.2019 02:00:00 16,1 15,1 9 5 - - W 1025,2 - 0,0
12.09.2019 01:00:00 17,2 16,3 15 8 - - WSW 1024,9 - 0,0
12.09.2019 00:00:00 16,7 15,9 8 4 - - WSW 1024,5 - 0,0
11.09.2019 23:00:00 17,6 16,6 13 7 - - W 1024,2 - 0,0
11.09.2019 22:00:00 17,8 16,8 13 7 - - W 1023,7 - 0,0
11.09.2019 21:00:00 18,0 16,7 18 10 - - WSW 1023,4 - 0,0
11.09.2019 20:00:00 18,1 16,6 22 12 - - WSW 1022,9 10 0,0
11.09.2019 19:00:00 18,2 16,7 26 14 - - WSW 1022,0 10 0,0
11.09.2019 18:00:00 18,3 16,8 26 14 46 25 WSW 1021,8 10 0,0
11.09.2019 17:00:00 18,2 16,6 31 17 52 28 WSW 1021,5 7 0,0
11.09.2019 16:00:00 18,3 16,6 34 18 57 31 WSW 1021,4 10 0,0
11.09.2019 15:00:00 18,5 16,4 41 22 59 32 WSW 1021,0 10 0,0
11.09.2019 14:00:00 18,6 16,4 37 20 54 29 WSW 1021,1 10 0,0
11.09.2019 13:00:00 18,0 16,3 26 14 46 25 WSW 1021,2 10 0,0
11.09.2019 12:00:00 17,7 16,3 29 16 - - SW 1021,2 10 0,0
11.09.2019 11:00:00 17,0 15,8 29 16 46 25 SW 1021,3 10 0,0
11.09.2019 10:00:00 16,3 15,4 24 13 50 27 WSW 1021,0 2,3 0,2
11.09.2019 09:00:00 16,8 14,2 34 18 48 26 WSW 1020,6 10 0,0
11.09.2019 08:00:00 16,3 13,5 24 13 - - WSW 1020,3 10 0,0
11.09.2019 07:00:00 15,3 12,0 24 13 - - WSW 1019,9 - 0,0
11.09.2019 06:00:00 15,1 11,1 15 8 - - WSW 1020,5 - 0,0
11.09.2019 05:00:00 14,6 10,1 18 10 - - WSW 1020,6 - 0,0
11.09.2019 04:00:00 14,3 9,9 13 7 - - WSW 1021,0 - 0,0
11.09.2019 03:00:00 13,5 9,7 9 5 - - WSW 1021,2 - 0,0
11.09.2019 02:00:00 13,0 10,1 5 3 - - W 1021,6 - 0,0
11.09.2019 01:00:00 13,5 10,5 8 4 - - WNW 1021,5 - 0,0
11.09.2019 00:00:00 13,9 12,0 8 4 - - W 1021,4 - 0,0
10.09.2019 23:00:00 13,5 12,8 11 6 - - W 1021,4 - 0,0
10.09.2019 22:00:00 13,4 11,6 11 6 - - W 1021,4 - 0,0
10.09.2019 21:00:00 15,7 12,8 11 6 - - W 1021,1 - 0,0
10.09.2019 20:00:00 15,8 12,5 5 3 - - W 1020,6 10 0,0
10.09.2019 19:00:00 16,6 13,1 13 7 - - WSW 1020,3 10 0,0
10.09.2019 18:00:00 17,1 13,2 22 12 - - SSW 1020,1 10 0,0
10.09.2019 17:00:00 17,8 13,4 18 10 - - WSW 1020,2 10 0,0
10.09.2019 16:00:00 17,4 13,0 22 12 - - SW 1020,2 10 0,0
10.09.2019 15:00:00 18,6 13,8 18 10 - - SSW 1020,0 10 0,0
10.09.2019 14:00:00 18,8 13,3 16 9 - - S 1019,8 10 0,0
10.09.2019 13:00:00 17,9 12,5 11 6 - - WNW 1020,0 10 0,0
10.09.2019 12:00:00 16,9 13,4 11 6 - - NNW 1020,0 10 0,0
10.09.2019 11:00:00 16,5 13,9 13 7 - - NNW 1019,7 10 0,0
10.09.2019 10:00:00 13,6 13,0 11 6 - - N 1019,2 10 0,0
10.09.2019 09:00:00 11,5 11,4 16 9 - - N 1018,6 4,0 0,0
10.09.2019 08:00:00 10,6 10,5 18 10 - - NNW 1017,7 8 0,0
10.09.2019 07:00:00 9,6 9,5 16 9 - - N 1016,9 - 0,0
10.09.2019 06:00:00 9,9 9,8 13 7 - - N 1016,2 - 0,0
10.09.2019 05:00:00 10,4 10,1 15 8 - - N 1015,7 - 0,0
10.09.2019 04:00:00 10,5 10,2 13 7 - - N 1015,5 - 0,0
10.09.2019 03:00:00 11,5 11,1 11 6 - - N 1015,1 - 0,0
10.09.2019 02:00:00 12,0 11,6 11 6 - - N 1014,9 - 0,0
10.09.2019 01:00:00 11,9 11,5 9 5 - - N 1014,3 - 0,0
10.09.2019 00:00:00 12,0 11,7 11 6 - - N 1013,8 - 0,0
09.09.2019 23:00:00 12,3 11,8 8 4 - - N 1013,4 - 0,0
09.09.2019 22:00:00 12,6 11,6 8 4 - - N 1013,0 - 0,0
09.09.2019 21:00:00 14,0 13,0 9 5 - - SSW 1012,6 - 0,0
09.09.2019 20:00:00 13,3 12,4 4 2 - - - 1011,9 10 0,8
09.09.2019 19:00:00 14,4 11,8 21 11 - - SW 1011,6 10 0,0
09.09.2019 18:00:00 15,6 10,0 15 8 - - SSE 1011,1 10 0,0
09.09.2019 17:00:00 15,4 9,9 16 9 - - SE 1011,0 10 0,0
09.09.2019 16:00:00 15,6 10,0 18 10 - - S 1011,2 10 0,0
09.09.2019 15:00:00 15,9 10,2 21 11 - - S 1011,5 10 0,0
09.09.2019 14:00:00 15,0 12,7 15 8 - - SW 1011,9 10 0,0
09.09.2019 13:00:00 14,6 12,0 26 14 - - SW 1012,4 10 0,0
09.09.2019 12:00:00 15,2 11,7 26 14 - - SSW 1012,7 10 0,4
09.09.2019 11:00:00 15,5 11,1 29 16 - - S 1013,1 10 0,0

tt = Température de l'air
td = dewpoint
ff = Vitesse du vent
fx = gusts
dd = Direction du vent
ppp = reduced air pressure
vv = visibility
rr = Quantités de précipitations

stations d'obs. à proximité